Regional Weather Roundup
Issued by NWS New Orleans/Baton Rouge, LA

Home | Current Version | Previous Version | Text Only | Print | Product List | Glossary On
Versions: 1 2 3 4 5 6 7 8 9 10 11 12 13 14 15 16 17 18 19 20 21 22 23 24 25 26 27 28 29 30 31 32 33 34 35 36 37 38 39 40 41 42 43 44 45 46 47 48 49 50
993
ASUS44 KLIX 231401
RWRLIX
NEW ORLEANS REGIONAL WEATHER ROUNDUP
NATIONAL WEATHER SERVICE NEW ORLEANS LA
900 AM CDT THU OCT 23 2014

NOTE: "FAIR" INDICATES FEW OR NO CLOUDS BELOW 12,000 FEET WITH NO
      SIGNIFICANT WEATHER AND/OR OBSTRUCTIONS TO VISIBILITY.
      SKY/WX - SKY CONDITION AND SIGNIFICANT WEATHER.
      TMP - AIR TEMPERATURE.     DP    - DEWPOINT TEMPERATURE.
      RH  - RELATIVE HUMIDITY.   PRES  - PRESSURE.
      HI  - HEAT INDEX.          WCI   - WIND CHILL INDEX.

*  THESE STATIONS ARE NOT NWS OR FAA STATIONS AND ARE NOT UNDER
   NWS QUALITY CONTROL.

LAZ038-040-048-061>063-065>067-069-231500-
SOUTHEAST LOUISIANA

CITY           SKY/WX    TMP DP  RH WIND       PRES   REMARKS
N.O. AUDUBON     N/A     66  52  60 MISG        N/A
N.O. INTL ARPT MOSUNNY   65  51  60 NE8       30.11R
N.O. LAKEFRONT SUNNY     62  51  67 E14       30.11R
N.O. DOWNTOWN*   N/A     61  46  59 NE8       30.11R
SLIDELL        SUNNY     57  47  69 NE5       30.12R
BATON ROUGE    MOSUNNY   57  47  69 NE7       30.13R
BOOTHVILLE     SUNNY     72  59  63 NE7       30.08R
BELLE CHASSE   MOSUNNY   63  54  72 NE10      30.10R
BOGALUSA*        N/A     55  46  72 NE5       30.15R
NEW ROADS*       N/A     59  47  65 NE3       30.13R
GONZALES*        N/A     57  50  76 NE5       30.12R
HAMMOND*       NOT AVBL
HOUMA*         SUNNY     61  52  72 NE7       30.10R
PORT FOURCHON* SUNNY     70  61  73 NE9       30.11R

$$

MSZ070-080>082-231500-
SOUTHERN MISSISSIPPI

CITY           SKY/WX    TMP DP  RH WIND       PRES   REMARKS
MCCOMB         SUNNY     55  44  66 NE7       30.15R
GULFPORT       SUNNY     57  45  64 NE9       30.11R
BILOXI         SUNNY     56  45  66 NE9       30.12R
PASCAGOULA     SUNNY     55  47  74 N7        30.12R
STENNIS ARPT*  SUNNY     57  43  58 NE7       30.12R

$$

COASTAL OBSERVATIONS
LAKE AND NEARSHORE STATIONS

STATION/POSITION TIME  TEMP    WIND        PRES    WAVE
                       AIR SEA DIR/SP/G            HT/PER
                 (UTC) (F)     (DEG/KT/KT) (MB)    (FT/S)
PASCAGOULA       1300   56      20/  8/ 12 1018.9
WAVELAND YACHT   1300   56      50/ 11/ 14 1018.9
GRAND ISLE       1300   70 74   60/  9/ 12 1018.8
SOUTHWEST PASS   1300   74 81              1018.0
NEW CANAL        1300   62 69   70/ 15/ 18 1019.3
SHELL BEACH      1300   65 66   50/ 15/ 16 1018.7

OFFSHORE STATIONS

STATION/POSITION TIME  TEMP    WIND        PRES    WAVE
                       AIR SEA DIR/SP/G            HT/PER
                 (UTC) (F)     (DEG/KT/KT) (MB)    (FT/S)
64 S DAUPHIN ISL 1304   72 79   70/ 14/ 17 1018.4    4/ 6

$$




USA.gov is the U.S. government's official web portal to all federal, state and local government web resources and services.